SCP
0 0 -0 -0 -0 0 0 0 0 0 0 0 0 0 0 0 0 0 0 0 0 0 0 0 0 0 0 0 0 0 0 0
0 0 0 -0 -0 0 0 0 0 0 0 0 0 0 0 0 0 0 0 0 0 0 0 0 0 0 0 0 0 0 0 0
0 0 0 0 0 0 0 0 0 0 0 0 0 0 0 0 0 0 0 0 0 0 0 0 0 0 0 0 0 0 0 0
0 0 0 0 0 0 0 0 -0 0 0 0 0 0 0 0 0 0 0 0 0 0 0 0 0 0 0 0 0 0 0 0
0 0 0 0 0 0 0 0 0 0 0 0 0 0 0 0 0 0 0 0 0 0 0 0 0 0 0 0 0 0 0 0
0 0 0 0 0 0 0 0 0 0 0 0 0 0 0 0 0 0 0 0 0 0 0 0 0 0 0 0 0 0 0 0
0 0 0 0 0 0 0 0 0 0 0 0 0 0 0 0 0 0 0 0 0 0 0 0 0 0 0 0 0 0 0 0
0 0 0 0 0 0 0 0 0 0 0 0 0 0 0 0 0 0 0 0 0 0 0 0 0 0 0 0 0 0 0 0
0 0 0 0 0 0 0 0 0 0 0 0 0 0 0 0 0 0 0 0 0 0 0 0 0 0 0 0 0 0 0 0
-0 -0 -0 -0 -0 0 0 0 0 0 0 0 0 0 0 0 0 0 0 0 0 0 0 0 0 0 0 0 0 0 0 0
-0 -0 -0 -0 -0 -0 -0 -0 0 0 0 0 0 0 0 0 0 0 0 0 0 0 0 0 0 0 0 0 0 0 0 0
0 -0 -0 -0 -0 -0 -0 -0 -0 -0 0 0 0 0 0 0 0 0 0 0 0 0 0 0 0 0 0 0 0 0 0 0
-0 -0 -0 -0 -0 -0 -0 -0 0 -0 -0 -0 0 0 0 0 0 0 0 0 0 0 0 0 0 0 0 0 0 0 0 0
0 -0 -0 -0 -0 -0 -0 -0 -0 -0 -0 -0 -0 -0 0 0 0 0 0 0 0 0 0 0 0 0 0 0 0 0 0 0
0 0 0 -0 -0 -0 -0 -0 -0 -0 -0 -0 -0 -0 0 0 0 0 0 0 0 0 0 0 0 0 0 0 0 0 0 0
0 0 0 -0 -0 -0 -0 -0 -0 -0 -0 -0 -0 0 0 0 0 0 0 0 0 0 0 0 0 0 0 0 0 0 0 0
0 0 0 0 -0 -0 -0 -0 -0 -0 -0 -0 -0 0 0 0 0 0 0 0 0 0 0 0 0 0 0 0 0 0 0 0
0 0 0 0 0 0 -0 -0 -0 -0 0 -0 0 0 0 0 0 0 0 0 0 0 0 0 0 0 0 0 0 0 0 0
0 0 0 0 0 0 0 0 0 0 0 0 0 0 0 0 0 0 0 0 0 0 0 0 0 0 0 0 0 0 0 0
0 0 0 0 0 0 0 0 0 0 0 0 0 0 0 0 0 0 0 0 0 0 0 0 0 0 -0 -0 0 0 0 0
Wind_Speed_500mb
90 76 69 69 72 71 60 49 42 49 54 63 71 80 92 96 96 98 91 88 85 84 85 91 92 91 88 86 83 80 76 73
64 58 58 53 51 58 50 47 64 57 54 58 67 72 81 91 99 97 93 91 89 88 86 88 92 94 92 91 87 84 81 79
51 53 55 54 49 47 51 55 54 62 73 73 68 70 77 83 90 95 95 96 96 93 90 91 93 93 96 97 93 91 88 85
59 61 65 66 64 54 52 53 50 54 62 71 76 81 80 82 88 92 97 97 100 99 98 97 94 97 98 98 97 94 90 87
73 70 71 75 77 74 63 58 53 50 54 62 65 73 79 84 87 87 94 96 102 102 100 99 99 99 99 103 100 97 94 89
72 79 90 87 88 86 82 78 72 62 52 61 62 62 73 83 85 89 92 95 94 95 99 101 103 106 105 105 100 101 99 93
74 79 87 90 94 92 87 85 84 78 67 58 56 64 66 72 80 85 91 93 93 94 99 102 108 108 103 103 104 103 102 98
73 65 78 84 84 89 90 90 85 83 79 67 58 55 63 65 72 79 82 89 93 96 103 100 102 108 107 107 104 103 103 99
70 72 77 80 83 85 83 83 91 84 84 81 71 59 52 52 67 74 72 81 87 94 105 102 99 107 107 107 104 102 101 100
67 67 73 79 83 89 86 86 83 83 83 83 82 75 59 51 55 64 66 71 82 89 98 99 94 101 102 107 107 105 105 97
70 72 73 78 82 89 92 85 88 89 79 76 79 81 75 57 50 52 61 70 69 78 87 86 90 94 98 110 103 98 99 98
72 75 77 79 86 92 93 94 92 98 97 79 70 70 71 63 47 44 49 58 67 65 75 78 83 81 96 106 100 100 97 95
81 86 87 87 91 97 99 102 103 98 91 89 73 65 63 64 55 44 45 48 59 63 66 68 68 73 87 92 93 91 94 98
86 93 96 101 97 100 108 109 108 107 103 93 87 75 63 64 60 53 52 48 53 59 64 66 64 69 81 80 82 82 82 85
91 99 110 110 109 112 112 107 110 114 111 101 92 86 74 67 62 60 61 60 61 56 67 67 67 71 85 87 82 73 76 69
89 101 117 115 116 113 112 105 107 113 112 107 94 85 81 76 67 65 68 60 75 70 67 74 71 80 94 96 99 91 80 75
97 98 117 115 122 120 111 106 101 104 108 101 91 88 74 74 76 69 64 63 69 72 71 76 67 67 81 94 95 90 81 79
98 103 111 115 119 113 108 100 96 91 94 91 85 82 79 63 70 77 71 58 70 69 66 71 63 62 62 86 89 78 80 85
99 101 102 109 112 103 95 90 88 83 83 83 83 77 75 70 65 70 72 62 59 69 58 59 60 60 60 72 80 77 86 92
97 97 94 95 101 94 89 87 85 81 80 78 77 76 74 70 61 72 69 64 63 58 56 59 59 48 54 69 103 104 101 81
Wind_Direction_500mb
313 311 313 328 332 329 321 307 302 292 277 266 258 252 249 243 241 242 241 240 237 237 235 234 234 233 231 234 234 234 235 236
332 334 331 334 335 333 327 324 327 307 294 279 267 259 253 248 245 243 242 241 239 235 234 232 232 230 232 234 234 234 234 234
1 356 352 350 344 336 325 316 316 313 300 285 275 265 258 254 250 248 245 244 243 240 235 234 231 230 231 232 232 231 232 233
358 356 356 355 354 348 340 334 316 302 301 297 286 274 266 258 254 250 247 246 245 243 240 236 232 232 231 232 233 233 233 234
357 352 351 352 352 351 347 349 339 319 300 292 291 288 282 275 268 261 254 250 248 245 243 242 238 235 232 231 230 232 233 233
352 346 345 345 345 344 345 346 346 337 318 303 294 286 282 277 273 269 262 257 252 249 246 244 241 237 233 231 231 231 231 229
346 346 337 340 341 340 340 342 344 344 337 324 296 281 277 276 271 268 264 257 252 251 247 245 243 240 237 234 232 231 230 228
337 330 332 335 335 335 335 336 337 341 341 340 327 296 275 273 270 266 266 263 256 250 246 243 242 242 235 233 230 230 229 227
329 331 331 329 329 328 333 329 330 332 329 338 340 328 306 282 272 266 262 262 259 254 250 243 247 241 235 233 230 227 227 226
323 325 326 327 327 327 327 330 327 323 324 322 332 335 327 309 289 274 263 256 253 250 248 246 244 238 234 233 230 224 223 222
319 320 323 324 325 325 326 325 323 320 320 316 315 319 329 322 304 287 269 260 253 248 246 243 240 235 231 231 227 224 219 218
311 313 318 322 324 324 323 319 319 314 314 313 308 304 308 314 312 300 281 265 255 247 247 243 239 231 229 231 228 224 220 219
309 310 313 315 317 317 315 316 316 314 311 311 309 304 299 299 299 295 280 272 259 250 244 240 235 225 223 218 228 222 222 222
306 306 307 310 312 311 314 314 313 311 308 305 306 301 296 291 289 287 278 266 263 254 246 238 230 220 212 205 220 218 220 224
304 302 304 306 306 306 308 309 307 305 304 305 302 299 290 284 283 278 273 272 261 254 244 238 226 214 211 202 214 222 218 218
298 298 299 302 302 302 303 303 301 300 300 300 298 295 289 283 277 277 272 270 269 263 255 243 231 221 212 205 208 216 215 203
295 295 297 298 299 300 300 301 300 296 295 295 294 290 283 281 282 271 273 270 268 266 262 258 252 241 220 213 209 216 216 201
294 294 295 296 296 297 298 298 296 293 291 290 288 285 284 278 272 276 268 268 266 261 258 260 254 251 233 214 204 206 207 212
295 294 295 298 298 301 300 298 294 291 287 285 284 282 281 278 268 264 271 268 264 256 243 237 248 240 234 211 192 194 202 213
303 300 300 299 300 305 301 297 294 291 287 284 281 278 277 270 268 264 267 265 262 254 245 231 227 212 218 205 192 193 203 205
Wind_Speed_850mb
90 76 69 69 72 71 60 49 42 49 54 63 71 80 92 96 96 98 91 88 85 84 85 91 92 91 88 86 83 80 76 73
64 58 58 53 51 58 50 47 64 57 54 58 67 72 81 91 99 97 93 91 89 88 86 88 92 94 92 91 87 84 81 79
51 53 55 54 49 47 51 55 54 62 73 73 68 70 77 83 90 95 95 96 96 93 90 91 93 93 96 97 93 91 88 85
59 61 65 66 64 54 52 53 50 54 62 71 76 81 80 82 88 92 97 97 100 99 98 97 94 97 98 98 97 94 90 87
73 70 71 75 77 74 63 58 53 50 54 62 65 73 79 84 87 87 94 96 102 102 100 99 99 99 99 103 100 97 94 89
72 79 90 87 88 86 82 78 72 62 52 61 62 62 73 83 85 89 92 95 94 95 99 101 103 106 105 105 100 101 99 93
74 79 87 90 94 92 87 85 84 78 67 58 56 64 66 72 80 85 91 93 93 94 99 102 108 108 103 103 104 103 102 98
73 65 78 84 84 89 90 90 85 83 79 67 58 55 63 65 72 79 82 89 93 96 103 100 102 108 107 107 104 103 103 99
70 72 77 80 83 85 83 83 91 84 84 81 71 59 52 52 67 74 72 81 87 94 105 102 99 107 107 107 104 102 101 100
67 67 73 79 83 89 86 86 83 83 83 83 82 75 59 51 55 64 66 71 82 89 98 99 94 101 102 107 107 105 105 97
70 72 73 78 82 89 92 85 88 89 79 76 79 81 75 57 50 52 61 70 69 78 87 86 90 94 98 110 103 98 99 98
72 75 77 79 86 92 93 94 92 98 97 79 70 70 71 63 47 44 49 58 67 65 75 78 83 81 96 106 100 100 97 95
81 86 87 87 91 97 99 102 103 98 91 89 73 65 63 64 55 44 45 48 59 63 66 68 68 73 87 92 93 91 94 98
86 93 96 101 97 100 108 109 108 107 103 93 87 75 63 64 60 53 52 48 53 59 64 66 64 69 81 80 82 82 82 85
91 99 110 110 109 112 112 107 110 114 111 101 92 86 74 67 62 60 61 60 61 56 67 67 67 71 85 87 82 73 76 69
89 101 117 115 116 113 112 105 107 113 112 107 94 85 81 76 67 65 68 60 75 70 67 74 71 80 94 96 99 91 80 75
97 98 117 115 122 120 111 106 101 104 108 101 91 88 74 74 76 69 64 63 69 72 71 76 67 67 81 94 95 90 81 79
98 103 111 115 119 113 108 100 96 91 94 91 85 82 79 63 70 77 71 58 70 69 66 71 63 62 62 86 89 78 80 85
99 101 102 109 112 103 95 90 88 83 83 83 83 77 75 70 65 70 72 62 59 69 58 59 60 60 60 72 80 77 86 92
97 97 94 95 101 94 89 87 85 81 80 78 77 76 74 70 61 72 69 64 63 58 56 59 59 48 54 69 103 104 101 81
Wind_Direction_850mb
313 311 313 328 332 329 321 307 302 292 277 266 258 252 249 243 241 242 241 240 237 237 235 234 234 233 231 234 234 234 235 236
332 334 331 334 335 333 327 324 327 307 294 279 267 259 253 248 245 243 242 241 239 235 234 232 232 230 232 234 234 234 234 234
1 356 352 350 344 336 325 316 316 313 300 285 275 265 258 254 250 248 245 244 243 240 235 234 231 230 231 232 232 231 232 233
358 356 356 355 354 348 340 334 316 302 301 297 286 274 266 258 254 250 247 246 245 243 240 236 232 232 231 232 233 233 233 234
357 352 351 352 352 351 347 349 339 319 300 292 291 288 282 275 268 261 254 250 248 245 243 242 238 235 232 231 230 232 233 233
352 346 345 345 345 344 345 346 346 337 318 303 294 286 282 277 273 269 262 257 252 249 246 244 241 237 233 231 231 231 231 229
346 346 337 340 341 340 340 342 344 344 337 324 296 281 277 276 271 268 264 257 252 251 247 245 243 240 237 234 232 231 230 228
337 330 332 335 335 335 335 336 337 341 341 340 327 296 275 273 270 266 266 263 256 250 246 243 242 242 235 233 230 230 229 227
329 331 331 329 329 328 333 329 330 332 329 338 340 328 306 282 272 266 262 262 259 254 250 243 247 241 235 233 230 227 227 226
323 325 326 327 327 327 327 330 327 323 324 322 332 335 327 309 289 274 263 256 253 250 248 246 244 238 234 233 230 224 223 222
319 320 323 324 325 325 326 325 323 320 320 316 315 319 329 322 304 287 269 260 253 248 246 243 240 235 231 231 227 224 219 218
311 313 318 322 324 324 323 319 319 314 314 313 308 304 308 314 312 300 281 265 255 247 247 243 239 231 229 231 228 224 220 219
309 310 313 315 317 317 315 316 316 314 311 311 309 304 299 299 299 295 280 272 259 250 244 240 235 225 223 218 228 222 222 222
306 306 307 310 312 311 314 314 313 311 308 305 306 301 296 291 289 287 278 266 263 254 246 238 230 220 212 205 220 218 220 224
304 302 304 306 306 306 308 309 307 305 304 305 302 299 290 284 283 278 273 272 261 254 244 238 226 214 211 202 214 222 218 218
298 298 299 302 302 302 303 303 301 300 300 300 298 295 289 283 277 277 272 270 269 263 255 243 231 221 212 205 208 216 215 203
295 295 297 298 299 300 300 301 300 296 295 295 294 290 283 281 282 271 273 270 268 266 262 258 252 241 220 213 209 216 216 201
294 294 295 296 296 297 298 298 296 293 291 290 288 285 284 278 272 276 268 268 266 261 258 260 254 251 233 214 204 206 207 212
295 294 295 298 298 301 300 298 294 291 287 285 284 282 281 278 268 264 271 268 264 256 243 237 248 240 234 211 192 194 202 213
303 300 300 299 300 305 301 297 294 291 287 284 281 278 277 270 268 264 267 265 262 254 245 231 227 212 218 205 192 193 203 205